1381708827284,101.156
1381708887284,100.545
1381708947284,100.442
1381709007284,101.075
1381709067284,100.833
1381709127284,100.706
1381709187284,100.772
1381709247284,100.739
1381709307284,100.895
1381709367284,100.604
1381709427284,100.643
1381709487284,100.967
1381709547284,100.926
1381709607284,101.274
1381709667284,100.885
1381709727284,101.238
1381709787284,101.261
1381709847284,100.917
1381709907284,100.955
1381709967284,100.819
1381710027284,101.174
1381710087284,101.117
1381710147284,101.049
1381710207284,100.423
1381710267284,101.481
1381710327284,101.430
1381710387284,101.255
1381710447284,101.099
1381710507284,101.105
1381710567284,101.317
1381710627284,101.237
1381710687284,101.151
1381710747284,101.204
1381710807284,101.222
1381710867284,100.966
1381710927284,101.470
1381710987284,101.560
1381711047284,101.462
1381711107284,101.411
1381711167284,101.674
1381711227284,101.266
1381711287284,101.572
1381711347284,101.897
1381711407284,101.397
1381711467284,101.904
1381711527284,101.574
1381711587284,101.845
1381711647284,101.735
1381711707284,101.796
1381711767284,101.491
1381711827284,101.998
1381711887284,101.831
1381711947284,101.465
1381712007284,101.176
1381712067284,101.905
1381712127284,101.674
1381712187284,101.512
1381712247284,101.765
1381712307284,101.533
1381712367284,101.858
1381712427294,101.727
1381712487294,101.355
1381712547294,101.794
1381712607294,101.613
1381712667294,101.690
1381712727294,101.409
1381712787294,101.848
1381712847294,101.600
1381712907294,101.408
1381712967294,101.452
1381713027294,101.373
1381713087294,101.201
1381713627294,101.465
1381713687294,101.789
1381713747294,101.704
1381713807294,102.035
1381713867294,102.527
1381713927294,102.366
1381713987294,102.123
1381714047294,102.215
1381714107294,102.153
1381714167294,102.332
1381714227294,102.994
1381714287294,103.099
1381714347294,103.189
1381714407294,102.598
1381714467294,102.799
1381714527294,102.843
1381714587294,102.946
1381714647294,102.775
1381714707294,102.723
1381714767294,102.698
1381714827294,106.264
1381714887294,102.928
1381714947294,102.769
1381715007294,103.180
1381715067294,103.417
1381715127294,103.021
1381715187294,102.935
1381715247294,103.054
1381715307294,102.844
1381715367294,102.956
1381715427294,103.239
1381715487294,103.067
1381715547294,102.816
1381715607294,102.960
1381715667294,103.325
1381715727294,103.095
1381715787294,102.827
1381715847294,103.456
1381715907294,102.791
1381715967294,103.021
1381716027304,103.132
1381716087304,103.186
1381716147304,103.210
1381716207304,102.633
1381716267304,103.256
1381716327304,103.091
1381716387304,103.258
1381716447304,103.531
1381716507304,103.293
1381716567304,103.307
1381716627304,103.565
1381716687304,103.137
1381716747304,103.100
1381716807304,103.187
1381716867304,104.231
1381716927304,103.383
1381716987304,103.169
1381717047304,103.505
1381717107304,103.842
1381717167304,103.739
1381717227304,103.572
1381717287304,103.550
1381717347304,103.194
1381717407304,103.835
1381717467304,103.522
1381717527304,103.267
1381717587304,103.471
1381717647304,103.704
1381717707304,103.616
1381717767304,103.695
1381717827304,103.974
1381717887304,103.092
1381717947304,103.376
1381718007304,103.624
1381718067304,103.204
1381718127304,103.605
1381718187304,103.533
1381718247304,103.615
1381718307304,103.586
1381718367304,103.483
1381718427304,103.164
1381718487304,102.886
1381718547304,103.413
1381718607304,103.283
1381718667304,103.775
1381718727304,103.549
1381718787304,103.170
1381718847304,103.604
1381718907304,103.370
1381718967304,103.780
1381719027304,103.233
1381719087304,103.705
1381719147304,103.326
1381719207304,103.329
1381719267304,103.668
1381719327304,103.241
1381719387304,103.370
1381719447304,103.344
1381719507304,103.281
1381719567304,103.485
1381719627314,102.681
1381719687314,103.638
1381719747314,102.940
1381719807314,103.334
1381719867314,103.398
1381719927314,103.296
1381719987314,103.366
1381720047314,103.393
1381720107314,103.120
1381720167314,103.402
1381720227314,103.391
1381720287314,103.202
1381720347314,103.406
1381720407314,103.147
1381720467314,103.579
1381720527314,103.165
1381720587314,102.988
1381720647314,103.032
1381720707314,103.807
1381720767314,103.634
1381720827314,103.506
1381720887314,103.066
1381720947314,103.491
1381721007314,103.831
1381721067314,103.473
1381721127314,103.233
1381721187314,103.602
1381721247314,103.744
1381721307314,103.065
1381721367314,103.534
1381721427314,103.146
1381721487314,103.137
1381721547314,103.284
1381721607314,103.118
1381721667314,103.597
1381721727314,103.529
1381721787314,102.653
1381721847314,103.231
1381721907314,103.101
1381721967314,102.350
1381722027314,103.198
1381722087314,103.596
1381722147314,102.908
1381722207314,103.271
1381722267314,103.492
1381722327314,103.377
1381722387314,102.805
1381722447314,103.009
1381722507314,103.472
1381722567314,102.412
1381722627314,102.713
1381722687314,102.949
1381722747314,103.336
1381722807314,103.409
1381722867314,103.062
1381722927314,102.824
1381722987314,103.217
1381723047314,103.465
1381723107314,103.132
1381723167314,102.858
1381723227323,102.986
1381723287323,103.163
1381723347323,102.809
1381723407323,103.275
1381723467323,102.892
1381723527323,102.908
1381723587323,102.830
1381723647323,102.928
1381723707323,103.299
1381723767323,103.225
1381723827323,103.187
1381723887323,102.709
1381723947323,102.917
1381724007323,103.171
1381724067323,103.312
1381724127323,102.994
1381724187323,102.786
1381724247323,103.042
1381724307323,103.231
1381724367323,102.983
1381724427323,102.924
1381724487323,102.843
1381724547323,102.879
1381724607323,103.066
1381724667323,102.469
1381724727323,102.457
1381724787323,102.922
1381724847323,102.985
1381724907323,102.788
1381724967323,102.921
1381725027323,102.434
1381725087323,102.696
1381725147323,102.598
1381725207323,102.366
1381725267323,102.538
1381725327323,102.189
1381725387323,102.367
1381725447323,102.153
1381725507323,102.534
1381725567323,101.925
1381725627323,102.439
1381725687323,101.699
1381725747323,102.225
1381725807323,102.645
1381725867323,102.174
1381725927323,101.722
1381725987323,101.883
1381726047323,102.093
1381726107323,101.709
1381726167323,101.493
1381726227323,102.244
1381726287323,101.687
1381726347323,101.969
1381726407323,101.681
1381726467323,102.064
1381726527323,101.724
1381726587323,101.495
1381726647323,101.201
1381726707323,101.592
1381726767323,102.055
1381726827333,101.763
1381726887333,101.986
1381726947333,101.198
1381727007333,101.654
1381727067333,102.008
1381727127333,102.226
1381727187333,101.328
1381727247333,101.664
1381727307333,101.601
1381727367333,101.002
1381727427333,102.047
1381727487333,101.833
1381727547333,101.586
1381727607333,102.064
1381727667333,101.863
1381727727333,101.132
1381727787333,100.875
1381727847333,101.700
1381727907333,101.913
1381727967333,101.422
1381728027333,101.390
1381728087333,101.625
1381728147333,101.753
1381728207333,101.400
1381728267333,101.321
1381728327333,101.244
1381728387333,101.315
1381728447333,101.580
1381728507333,101.460
1381728567333,101.541
1381728627333,101.695
1381728687333,101.476
1381728747333,102.141
1381728807333,101.343
1381728867333,100.926
1381728927333,101.542
1381728987333,100.517
1381729047333,101.777
1381729107333,100.630
1381729167333,101.500
1381729227333,101.159
1381729287333,100.977
1381729347333,100.858
1381729407333,101.079
1381729467333,100.814
1381729527333,100.784
1381729587333,100.982
1381729647333,101.085
1381729707333,101.069
1381729767333,100.748
1381729827333,100.714
1381729887333,101.116
1381729947333,100.769
1381730007333,100.151
1381730067333,100.947
1381730127333,100.526
1381730187333,104.070
1381730247333,100.725
1381730307333,100.674
1381730367333,100.722
1381730427342,100.559
1381730487342,100.388
1381730547342,101.086
1381730607342,100.715
1381730667342,100.397
1381730727342,101.132
1381730787342,100.713
1381730847342,100.224
1381730907342,100.562
1381730967342,100.438
1381731027342,100.618
1381731087342,100.259
1381731147342,100.229
1381731207342,100.513
1381731267342,100.413
1381731327342,100.448
1381731387342,100.266
1381731447342,99.5969
1381731507342,100.055
1381731567342,100.110
1381731627342,99.8615
1381731687342,100.167
1381731747342,99.6979
1381731807342,99.8834
1381731867342,100.428
1381731927342,100.429
1381731987342,100.104
1381732047342,100.165
1381732107342,100.090
1381732167342,99.6991
1381732227342,100.200
1381732287342,99.6026
1381732347342,99.5445
1381732407342,99.9898
1381732467342,99.4179
1381732527342,99.7601
1381732587342,99.5598
1381732647342,100.026
1381732707342,99.6397
1381732767342,99.7220
1381732827342,99.6169
1381732887342,99.7021
1381732947342,99.4201
1381733007342,99.8786
1381733067342,99.6543
1381733127342,99.5624
1381733187342,99.9298
1381733247342,99.6545
1381733307342,100.109
1381733367342,99.4035
1381733427342,99.2930
1381733487342,100.070
1381733547342,99.2674
1381733607342,99.6714
1381733667342,99.4482
1381733727342,99.8245
1381733787342,99.1190
1381733847342,99.8265
1381733907342,99.6040
1381733967342,99.4247
1381734027352,99.4344
1381734087352,99.8728
1381734147352,99.5087
1381734207352,99.7017
1381734267352,99.1796
1381734327352,99.5717
1381734387352,99.4902
1381734447352,99.2873
1381734507352,99.2832
1381734567352,100.047
1381734627352,99.5480
1381734687352,99.3225
1381734747352,99.5534
1381734807352,99.4725
1381734867352,99.5454
1381734927352,99.4153
1381734987352,99.3865
1381735047352,99.8559
1381735107352,99.8185
1381735167352,99.0012
1381735227352,99.3075
1381735287352,99.3599
1381735347352,99.7130
1381735407352,99.4237
1381735467352,99.3291
1381735527352,99.5279
1381735587352,99.4940
1381735647352,99.0143
1381735707352,99.4247
1381735767352,99.4804
1381735827352,99.4116
1381735887352,99.2871
1381735947352,99.0564
1381736007352,98.7792
1381736067352,99.3025
1381736127352,99.5138
1381736187352,99.2665
1381736247352,99.1982
1381736307352,99.4859
1381736367352,99.8934
1381736427352,99.1896
1381736487352,99.4255
1381736547352,99.2693
1381736607352,99.6547
1381736667352,99.2439
1381736727352,99.5577
1381736787352,99.1382
1381736847352,99.6069
1381736907352,99.4264
1381736967352,99.3253
1381737027352,99.1731
1381737087352,99.8381
1381737147352,99.5425
1381737207352,99.7002
1381737267352,99.9187
1381737327352,99.9429
1381737387352,99.8004
1381737447352,99.9406
1381737507352,99.7532
1381737567352,99.2606
1381737627362,99.4516
1381737687362,99.4495
1381737747362,99.4252
1381737807362,99.4077
1381737867362,99.9619
1381737927362,99.9032
1381737987362,99.6419
1381738047362,99.7631
1381738107362,99.9223
1381738167362,100.075
1381738227362,99.3606
1381738287362,99.5274
1381738347362,99.3784
1381738407362,99.9100
1381738467362,99.9816
1381738527362,99.9670
1381738587362,99.5361
1381738647362,99.5005
1381738707362,99.3597
1381738767362,99.7526
1381738827362,99.7954
1381738887362,99.7615
1381738947362,99.7323
1381739007362,99.7370
1381739067362,99.2454
1381739127362,99.9125
1381739187362,99.7327
1381739247362,99.8244
1381739307362,99.7337
1381739367362,99.7075
1381739427362,99.1068
1381739487362,99.4462
1381739547362,99.2112
1381739607362,99.2216
1381739667362,99.4813
1381739727362,99.3684
1381739787362,99.5965
1381739847362,99.3609
1381739907362,99.2738
1381739967362,99.3649
1381740027362,98.9742
1381740087362,99.4364
1381740147362,99.1250
1381740207362,99.3872
1381740267362,99.1419
1381740327362,98.8219
1381740387362,99.2034
1381740447362,99.7449
1381740507362,99.0313
1381740567362,99.2072
1381740627362,98.9313
1381740687362,99.4668
1381740747362,99.1817
1381740807362,99.1011
1381740867362,99.6296
1381740927362,99.6181
1381740987362,99.3024
1381741047362,99.1455
1381741107362,98.8290
1381741167362,99.4466
1381741227372,99.1358
1381741287372,98.9202
1381741347372,98.9985
1381741407372,99.0602
1381741467372,99.3320
1381741527372,98.7958
1381741587372,99.0891
1381741647372,99.2016
1381741707372,99.5331
1381741767372,99.3424
1381741827372,99.3172
1381741887372,99.2010
1381741947372,99.1292
1381742007372,99.4449
1381742067372,98.9546
1381742127372,99.1008
1381742187372,98.9874
1381742247372,98.9222
1381742307372,99.5504
1381742367372,99.4734
1381742427372,99.2462
1381742487372,99.1051
1381742547372,98.7210
1381742607372,99.2433
1381742667372,98.8817
1381742727372,99.0976
1381742787372,99.3321
1381742847372,98.7759
1381742907372,99.4511
1381742967372,99.2063
1381743027372,99.2695
1381743087372,99.1557
1381743147372,99.3329
1381743207372,99.2514
1381743267372,99.0292
1381743327372,99.5862
1381743387372,99.4398
1381743447372,99.1968
1381743507372,99.3068
1381743567372,99.8297
1381743627372,99.6658
1381743687372,99.6953
1381743747372,99.5044
1381743807372,99.6892
1381743867372,99.4839
1381743927372,99.9108
1381743987372,99.7431
1381744047372,100.118
1381744107372,99.6216
1381744167372,99.4393
1381744227372,99.8771
1381744287372,99.9619
1381744347372,99.8630
1381744407372,99.6568
1381744467372,99.8970
1381744527372,99.9000
1381744587372,100.029
1381744647372,99.5760
1381744707372,99.7655
1381744767372,100.545
1381748427393,100.578
1381748487393,100.537
1381748547393,100.305
1381748607393,101.172
1381748667393,100.831
1381748727393,100.274
1381748787393,101.039
1381748847393,100.299
1381748907393,100.561
1381748967393,100.500
1381749027393,100.756
1381749087393,100.555
1381749147393,100.316
1381749207393,100.952
1381749267393,100.641
1381749327393,100.811
1381749387393,100.897
1381749447393,100.640
1381749507393,100.487
1381749567393,101.026
1381749627393,101.410
1381749687393,100.402
1381749747393,100.740
1381749807393,100.663
1381749867393,100.943
1381749927393,100.843
1381749987393,100.676
1381750047393,100.993
1381750107393,100.781
1381750167393,100.410
1381750227393,100.671
1381750287393,100.598
1381750347393,100.789
1381750407393,100.230
1381750467393,100.741
1381750527393,100.655
1381750587393,101.007
1381750647393,100.605
1381750707393,100.233
1381750767393,100.500
1381750827393,100.694
1381750887393,100.217
1381750947393,100.380
1381751007393,100.308
1381751067393,100.489
1381751127393,100.054
1381751187393,100.662
1381751247393,100.678
1381751307393,100.641
1381751367393,101.046
1381751427393,100.578
1381751487393,100.104
1381751547393,100.401
1381751607393,100.691
1381751667393,100.252
1381751727393,100.133
1381751787393,100.674
1381751847393,100.806
1381751907393,100.467
1381751967393,100.469
1381752027403,100.124
1381752087403,100.582
1381752147403,99.9884
1381752207403,99.8436
1381752267403,100.368
1381752327403,100.722
1381752387403,100.728
1381752447403,100.939
1381752507403,100.321
1381752567403,100.173
1381752627403,100.370
1381752687403,100.007
1381752747403,100.617
1381752807403,100.400
1381752867403,100.555
1381752927403,100.109
1381752987403,100.627
1381753047403,100.463
1381753107403,100.150
1381753167403,100.699
1381753227403,100.190
1381753287403,100.014
1381753347403,100.584
1381753407403,100.234
1381753467403,100.885
1381753527403,100.514
1381753587403,100.825
1381753647403,100.050
1381753707403,100.536
1381753767403,99.7964
1381753827403,100.387
1381753887403,100.265
1381753947403,100.637
1381754007403,100.487
1381754067403,100.187
1381754127403,100.340
1381754187403,100.442
1381754247403,100.030
1381754307403,100.031
1381754367403,100.170
1381754427403,99.9470
1381754487403,99.6532
1381754547403,99.9738
1381754607403,99.7305
1381754667403,99.6987
1381754727403,99.9049
1381754787403,100.043
1381754847403,99.4816
1381754907403,100.012
1381754967403,99.7199
1381755027403,99.6569
1381755087403,99.5096
1381755147403,99.9843
1381755207403,99.4731
1381755267403,99.8283
1381755327403,99.8566
1381755387403,99.6173
1381755447403,99.9470
1381755507403,99.8846
1381755567403,99.6798
1381755627414,99.3642
1381755687414,99.7382
1381755747414,99.7029
1381755807414,100.162
1381755867414,99.8141
1381755927414,99.6705
1381755987414,99.6793
1381756047414,99.7017
1381756107414,99.7581
1381756167414,99.5916
1381756227414,99.5585
1381756287414,99.1397
1381756347414,99.3031
1381756407414,99.4810
1381756467414,98.7927
1381756527414,99.6523
1381756587414,99.7248
1381756647414,98.7697
1381756707414,99.1102
1381756767414,99.1690
1381756827414,99.0215
1381756887414,99.4136
1381756947414,98.6671
1381757007414,99.3211
1381757067414,99.5699
1381757127414,98.9070
1381757187414,99.0642
1381757247414,99.1994
1381757307414,98.8787
1381757367414,98.9532
1381757427414,98.5284
1381757487414,98.8569
1381757547414,99.0560
1381757607414,98.7669
1381757667414,98.8411
1381757727414,98.4932
1381757787414,98.4060
1381757847414,98.1269
1381757907414,98.0776
1381757967414,99.3341
1381758027414,98.0963
1381758087414,98.5563
1381758147414,98.7184
1381758207414,98.6965
1381758267414,98.4684
1381758327414,98.4180
1381758387414,98.1205
1381758447414,98.2910
1381758507414,97.9535
1381758567414,98.0472
1381758627414,97.8654
1381758687414,97.5872
1381758747414,97.8700
1381758807414,98.1424
1381758867414,97.7228
1381758927414,97.5584
1381758987414,97.9165
1381759047414,97.7284
1381759107414,97.2314
1381759167414,97.5941
1381759227425,97.8451
1381759287425,96.7830
1381759347425,97.0705
1381759407425,97.3226
1381759467425,97.6037
1381759527425,97.1044
1381759587425,97.1715
1381759647425,97.1725
1381759707425,97.5028
1381759767425,96.8243
1381759827425,96.9576
1381759887425,97.3779
1381759947425,96.8882
1381760007425,97.0833
1381760067425,97.0044
1381760127425,97.0381
1381760187425,97.4768
1381760247425,97.2378
1381760307425,96.9011
1381760367425,97.4494
1381760427425,97.2597
1381760487425,97.6641
1381760547425,96.9973
1381760607425,97.5142
1381760667425,97.2859
1381760727425,97.4897
1381760787425,97.2348
1381760847425,97.3531
1381760907425,97.3231
1381760967425,97.2288
1381761027425,97.8069
1381761087425,97.7161
1381761147425,97.3875
1381761207425,97.2260
1381761267425,97.7516
1381761327425,97.6524
1381761387425,97.4840
1381761447425,97.2653
1381761507425,97.4912
1381761567425,97.2562
1381761627425,97.5021
1381761687425,97.4650
1381761747425,97.7398
1381761807425,97.5265
1381761867425,97.3257
1381761927425,97.7707
1381761987425,97.4184
1381762047425,97.6757
1381762107425,97.8771
1381762167425,97.9010
1381762227425,97.8358
1381762287425,98.1422
1381762347425,97.6005
1381762407425,97.3767
1381762467425,97.4711
1381762527425,97.2965
1381762587425,97.3003
1381762647425,97.9837
1381762707425,97.1266
1381762767425,97.5297
1381762827437,97.4120
1381762887437,97.5160
1381762947437,97.0481
1381763007437,97.5397
1381763067437,97.6493
1381763127437,97.6928
1381763187437,97.5914
1381763247437,97.3633
1381763307437,97.6124
1381763367437,97.6618
1381763427437,97.5198
1381763487437,97.9017
1381763547437,97.5559
1381763607437,98.3311
1381763667437,97.3168
1381763727437,97.7761
1381763787437,97.5162
1381763847437,97.5413
1381763907437,97.3438
1381763967437,97.7944
1381764027437,97.5946
1381764087437,97.8008
1381764147437,97.6459
1381764207437,97.3504
1381764267437,98.1536
1381764327437,97.4598
1381764387437,97.7381
1381764447437,97.6326
1381764507437,97.8972
1381764567437,97.7040
1381764627437,97.9056
1381764687437,97.7791
1381764747437,97.5568
1381764807437,98.0802
1381764867437,97.9684
1381764927437,97.5974
1381764987437,97.4970
1381765047437,97.8344
1381765107437,97.4941
1381765167437,97.8141
1381765227437,97.3013
1381765287437,97.5603
1381765347437,97.7271
1381765407437,97.5408
1381765467437,97.6640
1381765527437,97.6084
1381765587437,97.7188
1381765647437,97.5914
1381765707437,97.5485
1381765767437,97.9446
1381765827437,97.9380
1381765887437,98.5600
1381765947437,97.9578
1381766007437,97.5528
1381766067437,97.9928
1381766127437,97.9125
1381766187437,97.6710
1381766247437,98.1246
1381766307437,97.4483
1381766367437,98.2408
1381766427448,97.9681
1381766487448,97.5424
1381766547448,98.0693
1381766607448,97.5489
1381766667448,98.1843
1381766727448,97.7089
1381766787448,98.0340
1381766847448,98.1150
1381766907448,97.8794
1381766967448,97.4609
1381767027448,98.2195
1381767087448,97.8543
1381767147448,97.4293
1381767207448,98.5062
1381767267448,97.9107
1381767327448,97.8041
1381767387448,98.2160
1381767447448,97.9717
1381767507448,98.0780
1381767567448,98.0054
1381767627448,97.6999
1381767687448,98.1300
1381767747448,97.7740
1381767807448,98.0630
1381767867448,97.7524
1381767927448,97.4139
1381767987448,97.8972
1381768047448,98.0188
1381768107448,98.4074
1381768167448,98.0595
1381768227448,98.1834
1381768287448,98.3625
1381768347448,98.1920
1381768407448,98.3023
1381768467448,98.0329
1381768527448,98.0584
1381768587448,98.4224
1381768647448,98.2551
1381768707448,98.2368
1381768767448,97.3187
1381768827448,98.2927
1381768887448,98.4264
1381768947448,97.9888
1381769007448,98.0031
1381769067448,97.7978
1381769127448,98.9572
1381769187448,97.7919
1381769247448,98.0428
1381769307448,98.1286
1381769367448,98.1105
1381769427448,97.8058
1381769487448,98.1697
1381769547448,98.3184
1381769607448,98.3525
1381769667448,98.0672
1381769727448,97.8001
1381769787448,98.5010
1381769847448,98.3012
1381769907448,98.0759
1381769967448,98.2095
1381770027459,98.3716
1381770087459,98.2294
1381770147459,98.0142
1381770207459,98.1113
1381770267459,97.4795
1381770327459,97.6023
1381770387459,97.7106
1381770447459,98.1548
1381770507459,97.8388
1381770567459,98.3212
1381770627459,98.4252
1381770687459,97.9000
1381770747459,97.8888
1381770807459,98.1244
1381770867459,98.1099
1381770927459,98.1549
1381770987459,98.3299
1381771047459,98.3955
1381771107459,98.1160
1381771167459,98.7103
1381771227459,98.4354
1381771287459,98.2012
1381771347459,98.4731
1381771407459,98.1582
1381771467459,98.2894
1381771527459,98.3646
1381771587459,98.4236
1381771647459,98.7188
1381771707459,98.6538
1381771767459,98.2891
1381771827459,98.7610
1381771887459,98.5921
1381771947459,98.3349
1381772007459,98.6721
1381772067459,98.1345
1381772127459,98.4306
1381772187459,98.1879
1381772247459,98.0122
1381772307459,98.6932
1381772367459,98.3757
1381772427459,98.5343
1381772487459,98.8246
1381772547459,98.7858
1381772607459,98.3503
1381772667459,98.3581
1381772727459,98.9254
1381772787459,99.0769
1381772847459,99.0330
1381772907459,98.6019
1381772967459,98.4442
1381773027459,98.8654
1381773087459,98.5857
1381773147459,98.0442
1381773207459,98.6878
1381773267459,98.6334
1381773327459,98.8943
1381773387459,99.1000
1381773447459,98.8670
1381773507459,99.0740
1381773567459,99.1938
1381773627471,99.1082
1381773687471,98.5225
1381773747471,98.7337
1381773807471,99.4027
1381773867471,99.4409
1381773927471,99.5215
1381773987471,99.0006
1381774047471,98.8546
1381774107471,99.6671
1381774167471,99.3735
1381774227471,99.2653
1381774287471,99.8736
1381774347471,99.5693
1381774407471,98.8702
1381774467471,99.3894
1381774527471,99.3501
1381774587471,99.8048
1381774647471,99.3286
1381774707471,99.2920
1381774767471,99.2972
1381774827471,99.5865
1381774887471,99.3199
1381774947471,99.8411
1381775007471,99.5817
1381775067471,99.0244
1381775127471,98.7421
1381775187471,99.4463
1381775247471,99.6818
1381775307471,99.2238
1381775367471,99.9443
1381775427471,99.3302
1381775487471,99.5732
1381775547471,100.003
1381775607471,99.7129
1381775667471,99.6013
1381775727471,99.1853
1381775787471,99.5977
1381775847471,99.5008
1381775907471,99.3163
1381775967471,99.4023
1381776027471,99.0033
1381776087471,99.3046
1381776147471,99.4031
1381776207471,99.6281
1381776267471,99.8441
1381776327471,99.4225
1381776387471,99.2479
1381776447471,99.3699
1381776507471,99.5175
1381776567471,99.4943
1381776627471,100.017
1381776687471,99.8098
1381776747471,99.3027
1381776807471,99.5334
1381776867471,99.4881
1381776927471,99.9201
1381776987471,99.7441
1381777047471,99.7058
1381777107471,99.8267
1381777167471,99.9381
1381777227482,99.8200
1381777287482,99.3981
1381777347482,99.6919
1381777407482,99.7319
1381777467482,99.6968
1381777527482,99.2640
1381777587482,100.068
1381777647482,100.147
1381777707482,100.009
1381777767482,99.6484
1381777827482,99.6165
1381777887482,100.065
1381777947482,99.7925
1381778007482,99.4839
1381778067482,99.9300
1381778127482,99.6874
1381778187482,99.3190
1381778247482,99.5029